Location: Newark
(59.4564°N, 26.6917°E)
Time: 05:33:47
(UTC+00:00)

SR - Pass Details

Date: 28 November 2019
Orbit: 573 x 882 km, 66.7° (Epoch: 10 December)

Event Time Altitude Azimuth Distance (km) Brightness Sun altitude
Rises 16:38:49 0° 300° (WNW) 3,453 ? -23.0°
Reaches altitude 10° 16:41:21 10° 305° (NW) 2,535 ? -23.3°
Maximum altitude 16:47:10 54° 23° (NNE) 1,072 ? -24.1°
Enters shadow 16:47:55 51° 50° (NE) 1,111 ? -24.2°
Drops below altitude 10° 16:52:58 10° 100° (E) 2,526 - -24.8°
Sets 16:55:30 0° 105° (ESE) 3,440 - -25.1°
